Wind_Speed
54 54 53 52 52 53 53 52 53 50 53 55 55 55 52 48 39 45 43 41 37 34 32 31 30 31 31 29 29 24 24 22 26 30 30 30 34 36 36 40 38 39 39 36
47 49 52 52 51 52 54 54 53 52 55 57 55 55 53 51 43 44 45 42 40 37 36 37 35 35 35 33 32 30 25 24 23 25 28 29 28 30 33 34 36 40 38 34
45 47 49 51 52 53 54 56 56 55 58 58 55 54 54 52 42 44 46 42 41 37 38 40 39 40 38 39 37 35 33 34 30 25 30 31 31 31 30 30 32 34 36 36
41 43 45 47 49 51 55 56 54 52 53 50 47 48 48 45 41 42 42 42 41 37 38 40 41 41 42 42 40 41 40 39 38 38 36 34 33 32 33 35 36 38 36 38
37 39 41 44 45 46 50 50 47 45 40 37 38 37 40 36 35 37 37 35 34 36 36 40 41 42 42 42 41 42 41 39 39 39 40 41 41 40 40 39 39 40 40 41
33 34 36 37 39 38 33 31 41 44 38 37 36 29 32 31 31 33 29 25 27 29 30 37 38 40 39 41 40 40 41 41 39 37 37 38 42 41 40 40 40 40 43 49
33 35 37 40 41 39 38 35 30 38 36 39 34 40 35 33 35 30 27 24 24 25 28 30 33 37 39 40 39 41 42 41 42 40 38 41 40 39 35 38 36 39 42 46
20 27 34 36 37 38 38 36 31 29 36 35 35 37 35 34 38 30 25 21 23 24 25 25 25 26 30 33 34 37 38 41 41 41 41 39 41 39 37 39 38 39 39 42
27 23 26 32 36 35 35 35 34 30 33 35 34 38 34 34 33 27 21 17 22 23 25 25 23 20 22 24 27 29 32 36 37 36 35 34 35 35 37 36 37 42 41 40
28 30 26 27 34 33 32 30 31 33 30 34 36 36 36 35 30 25 20 17 20 25 24 24 22 22 22 23 23 25 27 29 28 26 25 23 27 27 28 33 37 43 42 46
27 27 28 26 32 31 29 26 27 30 28 32 34 37 37 32 26 22 20 17 20 25 25 24 23 26 21 19 17 19 22 23 25 24 23 23 21 22 23 23 23 28 35 39
32 30 29 27 32 29 27 22 23 28 30 31 36 37 32 25 22 21 18 18 19 25 26 25 27 25 23 21 21 21 19 18 19 20 19 18 18 16 11 11 12 13 16 20
34 32 29 30 33 28 23 17 24 26 26 34 37 30 24 21 17 16 17 19 22 24 28 30 30 26 25 24 21 21 21 21 23 22 22 21 20 20 18 15 14 15 15 16
28 29 30 34 34 28 20 23 26 30 34 33 30 26 21 16 17 17 19 20 22 25 28 33 30 26 25 26 25 24 24 24 24 24 22 21 24 23 23 23 23 23 25 24
26 30 28 37 37 33 28 25 32 32 31 29 25 21 19 19 17 18 20 20 23 26 27 31 30 27 26 26 26 24 25 26 26 27 27 28 30 30 30 31 31 31 31 31
30 30 28 39 39 37 34 32 32 29 28 26 25 22 22 20 20 19 18 18 23 27 26 24 25 27 26 28 28 28 27 28 29 29 30 32 33 34 35 37 38 37 37 37
29 28 29 38 39 37 33 32 27 28 28 28 26 23 20 22 22 21 19 22 25 26 27 26 24 27 29 30 29 25 26 28 30 31 33 34 36 37 38 39 40 40 42 44
28 27 30 33 35 35 34 31 29 27 28 29 26 24 24 22 19 18 19 23 26 27 27 24 23 24 25 29 26 22 24 29 31 32 34 35 36 39 40 43 45 47 48 49
31 29 34 36 34 31 27 24 24 24 27 29 26 24 23 22 20 16 14 14 19 25 29 28 27 24 30 27 23 25 25 27 30 33 35 37 39 40 41 40 40 37 39 41
28 30 36 35 29 27 26 25 24 23 24 23 21 20 19 16 16 17 18 18 21 27 28 27 27 29 27 25 22 22 24 29 32 35 38 41 39 38 33 33 39 37 34 38
29 35 35 33 31 30 29 27 24 22 19 17 14 14 17 14 18 22 27 21 22 27 29 29 31 29 28 26 27 27 28 30 32 33 34 34 36 36 37 35 33 32 28 30
30 29 31 33 33 28 25 23 22 21 18 18 17 14 17 16 15 28 31 23 26 28 26 23 24 21 23 24 24 26 28 31 35 37 37 38 37 35 35 34 35 32 27 25
28 28 29 28 26 24 23 22 21 19 22 23 16 12 11 16 16 11 29 30 29 21 23 27 21 20 22 24 27 30 32 35 37 38 40 38 38 37 35 36 38 38 36 33
24 20 21 27 29 26 23 21 22 24 21 17 13 11 11 16 17 20 15 16 18 20 20 22 23 23 26 27 30 31 31 31 29 29 30 31 35 39 37 36 37 37 33 33
27 26 24 30 27 25 28 27 22 18 15 12 11 11 13 14 15 16 16 18 18 17 17 22 24 26 22 21 23 25 25 28 29 30 32 32 31 32 35 35 35 36 35 36
22 23 24 25 24 23 21 16 9 10 10 10 9 8 10 11 12 12 13 14 13 14 15 13 16 19 20 22 27 27 28 30 30 31 32 30 31 29 31 34 34 36 37 38
20 19 22 23 20 13 7 5 5 7 11 9 7 5 4 2 4 7 10 12 12 12 14 17 20 25 27 29 30 32 34 35 37 36 32 28 26 23 28 34 38 37 40 42
Wind_Direction
244 245 248 251 254 257 259 260 261 263 264 263 261 262 261 261 257 257 255 245 244 239 238 231 229 230 237 232 234 238 240 237 236 231 236 231 229 226 223 227 239 244 248 246
248 248 248 251 254 258 259 260 261 260 261 261 262 262 263 262 257 251 252 245 240 236 232 232 224 228 229 231 231 229 233 232 230 236 240 247 245 241 240 234 236 241 249 253
241 244 246 250 254 257 258 259 260 260 261 261 261 260 259 258 250 245 246 242 239 234 230 231 229 223 227 228 229 234 229 233 234 231 238 241 246 250 250 252 252 253 255 258
245 247 249 252 255 257 258 260 262 260 256 255 252 251 252 251 245 238 240 238 236 234 225 228 232 230 229 230 231 233 235 239 235 232 234 235 238 244 247 248 251 254 257 263
248 250 252 253 255 256 258 258 256 252 247 243 240 234 246 246 234 229 232 231 228 230 225 226 227 231 235 231 232 235 238 240 241 244 238 239 241 243 246 249 253 256 260 260
251 247 244 246 249 253 261 260 247 242 239 234 229 228 238 233 223 217 216 217 220 224 225 224 226 233 236 238 236 237 240 243 245 245 246 249 244 245 246 250 254 256 257 258
251 248 248 248 251 253 253 251 248 235 234 229 223 224 228 220 202 197 198 208 214 216 223 226 224 225 231 235 235 239 245 246 245 250 249 248 251 252 250 250 250 252 255 259
266 253 244 245 247 247 248 244 246 244 226 224 224 222 219 208 197 194 198 206 215 216 217 222 227 230 231 234 234 237 241 247 249 249 251 252 255 258 252 250 253 253 257 258
254 253 250 241 243 244 245 245 239 242 226 217 215 214 207 201 201 202 199 209 212 218 220 220 222 227 234 235 236 234 235 243 247 253 255 258 262 259 260 253 249 248 248 251
254 245 246 240 235 238 240 242 237 234 220 206 211 208 202 201 193 195 204 206 208 218 222 225 225 229 228 232 232 234 236 239 244 245 246 246 249 260 248 248 243 248 245 244
249 242 239 234 226 230 235 238 235 229 215 200 204 199 195 197 199 211 209 214 214 214 218 223 225 228 231 232 230 237 236 236 239 240 240 243 237 245 246 248 251 249 253 257
243 236 234 225 216 221 225 226 218 216 209 192 193 189 187 198 212 219 222 211 206 213 219 219 227 231 227 223 222 220 224 221 225 222 220 220 228 230 237 234 233 241 246 257
237 226 223 211 208 210 213 201 195 195 189 183 181 181 195 201 213 223 219 201 208 213 216 221 227 229 226 224 222 223 217 217 213 214 218 231 235 239 245 238 241 250 263 275
214 213 207 200 198 197 196 174 173 170 171 178 185 196 202 210 215 216 214 211 211 218 220 224 226 228 226 224 223 226 225 225 228 227 227 233 243 246 253 258 259 264 271 277
197 191 191 192 189 186 178 173 172 173 183 191 195 204 204 212 213 214 219 220 218 221 226 225 223 227 229 229 230 228 232 234 237 238 243 245 248 255 259 264 267 268 272 276
176 177 180 185 187 188 183 186 185 190 196 201 208 213 218 219 220 217 211 210 210 219 224 227 225 228 231 232 235 239 242 244 247 249 252 254 254 255 260 266 270 272 273 275
162 169 174 180 188 188 189 189 192 198 205 214 221 221 222 221 219 218 208 195 202 216 221 221 223 227 232 235 238 243 249 253 255 257 258 260 262 266 268 270 270 272 273 274
154 158 163 170 178 183 190 197 202 204 213 213 218 216 216 225 228 224 214 200 206 218 225 227 229 233 239 244 246 248 253 256 259 263 264 266 269 271 273 274 276 276 275 274
144 138 145 155 166 174 174 177 180 184 192 197 204 213 222 224 222 215 217 219 218 221 225 231 230 234 246 254 253 251 250 258 263 266 266 269 272 277 277 272 268 266 267 267
144 141 142 158 165 168 172 170 175 177 176 179 183 190 199 208 217 217 215 209 204 204 204 206 219 226 233 245 245 259 274 275 272 269 272 272 270 264 263 266 261 268 273 273
138 142 142 138 139 146 151 149 152 158 167 177 186 194 197 205 198 197 187 199 207 219 219 217 236 236 239 247 272 272 266 261 262 263 265 265 268 269 264 273 262 262 269 271
126 137 138 139 142 146 149 149 153 161 172 177 163 172 186 193 191 188 192 197 213 224 215 235 259 264 255 251 254 256 255 259 265 264 265 267 265 268 260 261 261 260 269 273
132 135 137 144 143 139 138 143 144 153 153 161 169 167 173 174 173 196 201 213 230 242 243 250 246 257 260 262 264 265 265 267 268 270 269 265 259 263 267 262 259 262 265 269
144 130 135 137 131 129 137 139 142 143 145 153 160 155 160 179 199 206 216 220 235 243 241 247 259 264 268 266 269 269 263 269 275 277 280 277 269 265 261 263 259 256 262 265
143 134 136 133 135 133 132 129 130 141 139 140 150 166 179 198 209 221 229 234 244 254 272 266 259 268 261 256 259 259 264 261 273 272 280 281 276 269 260 256 253 255 259 262
117 128 133 135 135 136 137 130 126 143 153 171 181 192 203 211 221 234 246 259 272 272 272 255 250 253 260 264 272 268 267 266 271 275 277 283 278 272 264 257 254 258 260 264
111 122 135 137 138 146 161 169 157 158 151 142 147 143 152 219 268 287 287 284 270 266 266 264 263 268 276 280 279 277 276 274 273 277 276 275 268 265 266 262 264 262 264 269
Height
5491 5498 5503 5507 5511 5514 5519 5525 5532 5540 5538 5542 5545 5547 5556 5562 5568 5568 5573 5580 5584 5589 5591 5594 5598 5601 5604 5608 5611 5614 5618 5622 5624 5629 5633 5639 5643 5647 5651 5653 5658 5661 5665 5670
5478 5484 5489 5492 5496 5499 5503 5510 5518 5525 5523 5526 5532 5536 5542 5548 5557 5558 5561 5568 5574 5579 5583 5586 5590 5593 5597 5601 5606 5609 5614 5619 5622 5626 5630 5633 5636 5640 5644 5648 5651 5652 5657 5663
5464 5469 5474 5477 5481 5484 5488 5494 5502 5510 5509 5514 5520 5524 5529 5534 5543 5546 5550 5557 5562 5569 5573 5576 5581 5586 5590 5594 5599 5602 5607 5612 5618 5622 5624 5628 5632 5635 5639 5643 5645 5648 5649 5652
5452 5456 5460 5464 5468 5469 5471 5479 5490 5494 5495 5501 5507 5509 5516 5522 5531 5535 5539 5546 5552 5557 5563 5568 5572 5577 5582 5587 5591 5595 5599 5603 5609 5614 5618 5622 5625 5629 5632 5636 5638 5639 5644 5645
5440 5443 5447 5450 5454 5454 5459 5467 5475 5478 5485 5488 5494 5500 5505 5513 5520 5526 5531 5536 5540 5545 5554 5559 5564 5567 5572 5578 5583 5587 5591 5596 5600 5605 5610 5614 5618 5622 5624 5627 5630 5631 5633 5635
5429 5433 5436 5440 5442 5446 5450 5456 5459 5463 5473 5479 5485 5493 5502 5507 5513 5518 5523 5530 5533 5538 5544 5549 5556 5560 5565 5569 5574 5579 5583 5587 5592 5596 5602 5605 5610 5615 5619 5621 5622 5623 5625 5624
5419 5422 5426 5430 5432 5436 5440 5445 5447 5452 5463 5468 5478 5486 5493 5498 5506 5512 5518 5524 5528 5533 5536 5541 5547 5552 5555 5558 5565 5569 5573 5578 5583 5587 5592 5596 5602 5604 5609 5611 5614 5614 5616 5617
5409 5411 5415 5419 5423 5426 5429 5435 5440 5445 5452 5461 5468 5477 5486 5492 5499 5505 5512 5518 5522 5526 5531 5536 5540 5544 5548 5552 5556 5560 5564 5567 5572 5578 5581 5588 5590 5593 5598 5602 5604 5605 5606 5608
5401 5403 5406 5410 5413 5417 5421 5426 5433 5437 5444 5453 5461 5469 5479 5487 5494 5500 5506 5512 5517 5521 5524 5529 5533 5538 5541 5545 5549 5553 5558 5560 5565 5569 5573 5579 5579 5580 5584 5590 5593 5594 5597 5598
5392 5395 5397 5401 5405 5409 5414 5420 5425 5429 5435 5446 5454 5464 5474 5481 5489 5495 5500 5507 5512 5516 5520 5524 5529 5532 5536 5540 5543 5547 5550 5554 5559 5563 5566 5570 5570 5570 5575 5578 5579 5580 5586 5588
5383 5385 5389 5393 5398 5402 5406 5414 5418 5424 5430 5442 5449 5458 5468 5477 5484 5491 5496 5501 5506 5511 5516 5520 5522 5525 5530 5534 5538 5541 5545 5549 5552 5557 5560 5563 5564 5565 5568 5568 5569 5572 5575 5576
5371 5375 5380 5385 5391 5397 5402 5407 5413 5419 5425 5437 5445 5455 5464 5473 5480 5485 5490 5496 5500 5505 5510 5514 5517 5521 5525 5529 5532 5536 5541 5545 5548 5553 5555 5556 5557 5560 5562 5563 5565 5567 5569 5569
5357 5365 5371 5378 5385 5393 5399 5405 5410 5414 5423 5434 5443 5454 5462 5469 5475 5480 5486 5492 5496 5499 5503 5507 5511 5516 5521 5524 5529 5532 5536 5539 5543 5546 5549 5550 5552 5555 5556 5558 5560 5561 5562 5563
5346 5355 5363 5371 5381 5390 5396 5403 5410 5417 5428 5436 5445 5450 5458 5465 5471 5477 5482 5487 5491 5495 5498 5501 5506 5511 5516 5520 5524 5527 5530 5534 5538 5541 5544 5546 5546 5549 5550 5552 5554 5555 5555 5555
5340 5349 5358 5367 5378 5387 5395 5404 5411 5420 5430 5436 5443 5450 5456 5462 5467 5473 5478 5482 5486 5489 5493 5497 5502 5507 5511 5515 5518 5522 5525 5528 5531 5535 5538 5539 5540 5541 5543 5544 5546 5547 5547 5547
5338 5347 5355 5364 5374 5384 5394 5402 5410 5419 5426 5434 5440 5448 5452 5458 5464 5469 5473 5478 5482 5485 5488 5493 5498 5502 5506 5509 5512 5515 5518 5521 5524 5528 5530 5531 5532 5533 5534 5534 5535 5536 5537 5537
5338 5347 5354 5363 5373 5385 5395 5404 5413 5419 5425 5431 5437 5443 5448 5454 5459 5464 5470 5473 5478 5481 5484 5488 5492 5496 5498 5502 5505 5510 5511 5513 5516 5518 5519 5521 5521 5522 5523 5523 5524 5525 5526 5525
5342 5349 5356 5366 5374 5384 5393 5402 5410 5417 5423 5429 5435 5441 5446 5451 5456 5460 5466 5470 5473 5476 5480 5484 5487 5490 5492 5495 5500 5503 5505 5505 5507 5508 5509 5510 5510 5510 5510 5510 5510 5511 5511 5511
5347 5352 5358 5367 5376 5385 5395 5403 5410 5416 5423 5427 5432 5439 5444 5447 5452 5457 5460 5464 5468 5472 5475 5478 5482 5484 5485 5489 5493 5495 5496 5497 5497 5498 5498 5499 5499 5498 5498 5497 5496 5496 5495 5495
5355 5360 5365 5372 5381 5390 5397 5404 5410 5416 5421 5427 5432 5437 5441 5446 5449 5452 5456 5459 5462 5465 5469 5472 5474 5476 5479 5482 5484 5486 5488 5487 5487 5487 5486 5486 5486 5486 5485 5484 5485 5485 5484 5483
5365 5369 5373 5380 5387 5394 5400 5405 5412 5416 5421 5426 5430 5434 5438 5441 5445 5448 5452 5456 5457 5460 5464 5466 5469 5472 5475 5477 5478 5479 5478 5477 5477 5476 5475 5474 5474 5474 5475 5475 5474 5475 5474 5473
5375 5379 5383 5388 5393 5398 5404 5409 5414 5418 5422 5425 5429 5433 5436 5439 5442 5445 5449 5451 5455 5458 5461 5463 5466 5470 5470 5470 5469 5469 5469 5468 5467 5466 5465 5464 5464 5463 5463 5464 5464 5465 5465 5465
5383 5387 5390 5394 5400 5404 5408 5412 5417 5420 5423 5427 5431 5435 5437 5439 5442 5444 5448 5450 5452 5455 5457 5459 5463 5462 5462 5461 5461 5460 5459 5458 5457 5456 5454 5453 5453 5453 5453 5453 5453 5454 5455 5455
5390 5394 5397 5400 5404 5409 5413 5416 5420 5424 5428 5431 5434 5436 5438 5441 5443 5445 5448 5450 5451 5452 5454 5456 5456 5455 5454 5453 5452 5451 5450 5449 5448 5445 5444 5442 5440 5440 5441 5442 5442 5443 5443 5444
5395 5399 5403 5407 5410 5414 5418 5421 5426 5429 5431 5433 5435 5437 5439 5441 5442 5444 5445 5447 5447 5449 5449 5448 5447 5447 5445 5445 5444 5443 5442 5441 5439 5437 5435 5432 5430 5430 5430 5431 5431 5432 5433 5433
5402 5405 5409 5412 5416 5419 5423 5426 5429 5431 5433 5435 5436 5437 5439 5440 5441 5442 5442 5443 5443 5443 5442 5441 5441 5440 5440 5439 5437 5435 5433 5431 5429 5427 5425 5423 5421 5420 5420 5421 5422 5422 5422 5422
5409 5412 5415 5418 5421 5424 5426 5428 5430 5431 5433 5434 5435 5436 5437 5438 5438 5438 5438 5438 5437 5437 5437 5436 5436 5435 5433 5430 5427 5425 5422 5420 5418 5417 5415 5413 5412 5411 5412 5412 5412 5412 5412 5411